Flag for U.S.A. Weather past 2 weeks in Philadelphia, Pennsylvania, U.S.A.

Now
61 °F

Partly cloudy.


Feels Like: 61 °F
Forecast: 60 / 73 °F
Wind: No wind

Location: Philadelphia International Airport

Current Time: Sep 15, 2014 at 11:27:21 PM

Latest Report: Sep 15, 2014 at 10:54 PM


Visibility: 10 mi

Pressure: 30.09 "Hg

Humidity: 72%

Dew point: 52 °F

Location of PhiladelphiaLocation

Historic Weather in Philadelphia — Graph

°F

Philadelphia temperature yesterday

Maximum temperature yesterday: 68 °F (at 3:54 PM)
Minimum temperature yesterday: 53 °F (at 6:54 AM)
Average temperature yesterday: 61 °F

Past Weeks' High & Low Weather Summary

 TemperatureHumidityPressure
High93 °F (Sep 2, 2:54 PM)97% (Sep 5, 4:54 AM)30.30 "Hg (Sep 5, 4:54 AM)
Low53 °F (Sep 14, 6:54 AM)35% (Sep 7, 4:54 PM)29.84 "Hg (Sep 2, 6:54 PM)
Average73 °F68%30.08 "Hg
* Reported Aug 31 9:54 PM — Sep 15 9:54 PM, Philadelphia, Weather by CustomWeather, © 2014

Note: Actual official high and low records may vary slightly from our data, if they occured in-between our weather recording intervals... More about our weather records

Advertising

Philadelphia weather history for previous 24 hours

 ConditionsComfort  
Time TempWeatherWind HumidityBarometerVisibility
9:54 PM
Sep 15
65 °FPartly cloudy.6 mph61%30.09 "Hg10 mi
8:54 PM67 °FPartly cloudy.6 mph55%30.10 "Hg10 mi
7:54 PM67 °FBroken clouds.7 mph57%30.11 "Hg10 mi
6:54 PM69 °FScattered clouds.8 mph49%30.12 "Hg10 mi
5:54 PM71 °FScattered clouds.8 mph42%30.12 "Hg10 mi
4:54 PM71 °FScattered clouds.6 mph41%30.13 "Hg10 mi
3:54 PM71 °FScattered clouds.5 mph39%30.14 "Hg10 mi
2:54 PM72 °FScattered clouds.No wind38%30.16 "Hg10 mi
1:54 PM70 °FScattered clouds.3 mph39%30.19 "Hg10 mi
12:54 PM69 °FPassing clouds.6 mph42%30.20 "Hg10 mi
11:54 AM69 °FPassing clouds.6 mph42%30.23 "Hg10 mi
10:54 AM66 °FPassing clouds.3 mph50%30.25 "Hg10 mi
9:54 AM63 °FPassing clouds.7 mph58%30.24 "Hg10 mi
8:54 AM60 °FPassing clouds.7 mph62%30.25 "Hg10 mi
7:54 AM56 °FPassing clouds.10 mph72%30.24 "Hg10 mi
6:54 AM54 °FPassing clouds.7 mph74%30.24 "Hg10 mi
5:54 AM53 °FClear.6 mph77%30.22 "Hg10 mi
4:54 AM54 °FClear.7 mph74%30.22 "Hg10 mi
3:54 AM54 °FClear.7 mph77%30.21 "Hg10 mi
2:54 AM57 °FClear.6 mph69%30.21 "Hg10 mi
1:54 AM55 °FClear.No wind74%30.21 "Hg10 mi
12:54 AM57 °FClear.No wind72%30.21 "Hg10 mi
11:54 PM
Sep 14
58 °FClear.6 mph70%30.21 "Hg10 mi
Weather by CustomWeather, © 2014

See weather overviewHow to use our weather pages